Погода в Максах

Россия / Рязанская область     53°42′33″N   41°17′18″E
темп.,
°C
ветер,
м/с
пор.,
м/с
влажн.,
%
обл.,
%
осадки,
мм/ч
давл.,
гПа
погр.,
м
27 июня, пн
пн2700:00+17юв22810 0.0 102133
03:00+15ююв22800 0.0 102111
06:00+18юз23780 0.0 102197
09:00+23зюз23610 0.0 1021481
12:00+27з44570 0.0 1020933
15:00+29зсз465535 0.0 10181786
18:00+27зсз48660 0.1 1017630
21:00+22сз34871 1.6 101655
28 июня, вт
вт2800:00+19с36850 0.3 101789
03:00+17с35910 0.3 101777
06:00+19с25890 0.0 1017150
09:00+23ссв57680 0.0 1017753
12:00+24ссв67555 0.0 10181339
15:00+23св67441 0.0 10191461
18:00+20всв46540 0.0 1020798
21:00+15всв35660 0.0 102079
29 июня, ср
ср2900:00+12всв34730 0.0 102270
03:00+11св23750 0.0 102338
06:00+12ссв24720 0.0 1023145
09:00+17св34590 0.0 1022769
12:00+20св34432 0.0 10221800
15:00+20св33411 0.0 10211852
18:00+20св24520 0.0 10201289
21:00+14св11640 0.0 102010
30 июня, чт
чт3000:00+12зсз22720 0.0 102110
03:00+11зсз227659 0.0 102022
06:00+13зсз24755 0.0 1020120
09:00+19ссз34573 0.0 1019719
12:00+22ссз5642100 0.0 10181845
15:00+23ссз5739100 0.0 10172332
18:00+22ссз475012 0.0 1016694
21:00+18ссз3767100 0.0 1017161
1 июля, пт
пт100:00+15с3869100 0.0 1018155
03:00+12ссв35780 0.0 101973
06:00+13ссв25755 0.0 1020146
09:00+19св34553 0.0 1020748
12:00+22ссв35421 0.0 10201784
15:00+23ссв45380 0.0 10202037
18:00+22св23505 0.0 1020986
21:00+16ююв11635 0.0 102011